TimeMDT,TemperatureF,Dew PointF,Humidity,Sea Level PressureIn,VisibilityMPH,Wind Direction,Wind SpeedMPH,Gust SpeedMPH,PrecipitationIn,Events,Conditions,WindDirDegrees,DateUTC
12:51 AM,41.0,19.0,41,29.98,10.0,Calm,Calm,-,N/A,,Clear,0,2012-10-03 06:51:00
1:51 AM,46.9,18.0,32,29.99,10.0,NNW,9.2,-,N/A,,Overcast,340,2012-10-03 07:51:00
2:51 AM,45.0,17.1,33,30.04,10.0,NNE,5.8,-,N/A,,Scattered Clouds,30,2012-10-03 08:51:00
3:51 AM,42.1,16.0,35,30.05,10.0,West,3.5,-,N/A,,Clear,280,2012-10-03 09:51:00
4:51 AM,34.0,17.1,50,30.09,10.0,West,4.6,-,N/A,,Clear,260,2012-10-03 10:51:00
5:51 AM,37.9,10.9,33,30.12,10.0,North,11.5,20.7,N/A,,Clear,350,2012-10-03 11:51:00
6:51 AM,34.0,7.0,32,30.15,10.0,WNW,3.5,-,N/A,,Clear,300,2012-10-03 12:51:00
7:51 AM,35.1,7.0,31,30.17,10.0,North,11.5,18.4,N/A,,Clear,360,2012-10-03 13:51:00
8:51 AM,36.0,7.0,30,30.20,10.0,NE,8.1,-,N/A,,Clear,40,2012-10-03 14:51:00
9:51 AM,39.9,6.1,25,30.22,10.0,NNE,8.1,-,N/A,,Clear,20,2012-10-03 15:51:00
10:51 AM,44.1,6.1,21,30.23,10.0,North,5.8,-,N/A,,Clear,10,2012-10-03 16:51:00
11:51 AM,46.0,9.0,22,30.23,10.0,West,8.1,-,N/A,,Clear,280,2012-10-03 17:51:00
12:51 PM,48.9,9.0,20,30.24,10.0,NW,8.1,-,N/A,,Clear,310,2012-10-03 18:51:00
1:51 PM,51.1,9.0,18,30.20,10.0,WSW,9.2,16.1,N/A,,Clear,250,2012-10-03 19:51:00
2:51 PM,52.0,10.0,19,30.19,10.0,WSW,10.4,16.1,N/A,,Clear,250,2012-10-03 20:51:00
3:51 PM,54.0,9.0,17,30.19,10.0,WNW,10.4,17.3,N/A,,Clear,290,2012-10-03 21:51:00
4:51 PM,53.1,10.0,18,30.20,10.0,West,11.5,-,N/A,,Clear,260,2012-10-03 22:51:00
5:51 PM,52.0,10.9,19,30.19,10.0,West,10.4,-,N/A,,Clear,270,2012-10-03 23:51:00
6:51 PM,48.9,12.0,23,30.21,10.0,WNW,6.9,-,N/A,,Clear,290,2012-10-04 00:51:00
7:51 PM,43.0,15.1,32,30.23,10.0,Calm,Calm,-,N/A,,Clear,0,2012-10-04 01:51:00
9:51 PM,39.9,15.1,36,30.24,10.0,NNW,3.5,-,N/A,,Clear,340,2012-10-04 03:51:00
10:51 PM,37.0,17.1,44,30.23,10.0,Calm,Calm,-,N/A,,Clear,0,2012-10-04 04:51:00
11:51 PM,32.0,17.1,54,30.25,10.0,Calm,Calm,-,N/A,,Clear,0,2012-10-04 05:51:00